Tracking 35280 objects as of 7-Sep-2026
HD Live streaming from Space Station
objects crossing your sky now

PSLV DEB


PSLV DEB is no longer on orbit


NORAD ID: 27107
Int'l Code: 2001-049BB
Launch date: October 22, 2001
Source: India (IND)
Launch site: SRIHARIKOTA (SRI)
Decay date: 2013-09-16

Note: This is SATELLITE DEBRIS
Your satellite tracking list
Your tracking list is empty




NASA's NSSDC Master Catalog

Two Line Element Set (TLE):
1 27107U 01049BB  13258.69636635  .11695962  28508-5  22204-2 0  9993
2 27107 097.7620 157.5171 0004549 207.7058 179.4835 16.32034045381117
Source of the keplerian elements: AFSPC